Regional Weather Roundup
Issued by NWS

Home | Current Version | Previous Version | Graphics & Text | Print | Product List | Glossary On
Versions: 1 2 3 4 5 6 7 8 9 10 11 12 13 14 15 16 17 18 19 20 21 22 23 24 25 26 27 28 29 30 31 32 33 34 35 36 37 38 39 40 41 42 43 44 45 46 47 48 49 50
000
ASUS43 KMPX 230210
RWRMN
WEATHER ROUNDUP FOR MINNESOTA
NATIONAL WEATHER SERVICE TWIN CITIES/CHANHASSEN MN
800 PM CST SUN JAN 22 2017


NOTE: "FAIR" INDICATES FEW OR NO CLOUDS BELOW 12,000 FEET WITH NO
SIGNIFICANT WEATHER AND/OR OBSTRUCTIONS TO VISIBILITY. N/A MEANS
CURRENT SKY AND/OR WEATHER CONDITIONS ARE NOT AVAILABLE.

MNZ060>063-068>070-230300-
   Twin Cities Metro

CITY           SKY/WX    TMP DP  RH WIND       PRES   REMARKS
TWIN CITIES    CLOUDY    37  34  89 W6        29.77R
ST PAUL        CLOUDY    37  37 100 NW9       29.78R FOG
CRYSTAL        CLOUDY    36  33  89 W7        29.76R FOG
BLAINE         CLOUDY    37  37 100 W9        29.76S FOG
LAKEVILLE      CLOUDY    34  34 100 W5        29.77R FOG     WCI  30
EDEN PRAIRIE   CLOUDY    36  34  92 W7        29.76R
SOUTH ST PAUL  CLOUDY    37  37  97 CALM      29.77R FOG
LAKE ELMO      CLOUDY    36  36 100 W5        29.77R FOG
$$
MNZ001>005-007-008-013>017-022>024-027-028-230300-
   Northwest Minnesota

CITY           SKY/WX    TMP DP  RH WIND       PRES   REMARKS
BEMIDJI        CLOUDY    32  32 100 W6        29.74R FOG     WCI  27
HALLOCK        CLOUDY    34  32  93 CALM      29.75R FOG
ROSEAU         CLOUDY    34  30  86 CALM      29.74S FOG
WARROAD        FOG       34  28  80 CALM      29.74S VSB 1/2
THIEF RVR FALL LGT SNOW  30  30 100 W8        29.77R FOG     WCI  23
CROOKSTON      CLOUDY    32  30  93 CALM      29.78S
FOSSTON        MIX PCPN  30  30 100 W6        29.77R VSB 1/2 WCI  24
DETROIT LAKES  CLOUDY    32  32 100 W3        29.77F FOG
MOORHEAD       CLOUDY    30  30 100 W7        29.80S FOG     WCI  23
PARK RAPIDS    CLOUDY    33  30  88 W9        29.74S FOG     WCI  25
MAHNOMEN       FOG       31  31 100 SW6       29.76S VSB 3/4 WCI  25
$$
MNZ006-009>011-018-025>026-230300-
   North Central Minnesota

CITY           SKY/WX    TMP DP  RH WIND       PRES   REMARKS
BAUDETTE       FOG       33  33 100 CALM      29.73S VSB 1/2
FLAG ISLAND    FOG       32  32 100 CALM      29.73S VSB 1
INTL FALLS     CLOUDY    35  33  92 NW3       29.72S FOG
WASKISH        FOG       34  34 100 CALM      29.73F VSB 1
BIG FORK       FOG       36  34  93 CALM      29.73R VSB 1/4
LONGVILLE      CLOUDY    34  34 100 CALM      29.73S FOG
GRAND RAPIDS   FOG       35  34  96 NW3       29.74S VSB 1/4
CRANE LAKE     CLOUDY    32  30  93 CALM      29.74S FOG
ORR            FLURRIES  32  30  93 CALM      29.70S
COOK           CLOUDY    32  32 100 CALM      29.72S
WALKER         CLOUDY    33  33  99 W5        29.74R WCI  29
$$
MNZ012-019>021-037-230300-
   Northeast Minnesota

CITY           SKY/WX    TMP DP  RH WIND       PRES   REMARKS
DULUTH         CLOUDY    35  34  96 N3        29.71R
ELY            DRIZZLE   34  34 100 CALM      29.71S
HIBBING        CLOUDY    33  33 100 NW3       29.71S
EVELETH        CLOUDY    35  34  96 CALM      29.72S
DULUTH HARBOR  CLOUDY    37  36  93 CALM      29.74R
TWO HARBORS    CLOUDY    39  34  81 CALM      29.70R
SILVER BAY     CLOUDY    34  34 100 CALM      29.70R FOG
GRAND MARAIS     N/A     35  33  92 N3        29.71S
G MARAIS ARPRT CLOUDY    30  28  93 N5        29.69R FOG     WCI  25
$$
MNZ029>031-032-039>041-046>048-054>057-064-230300-
   West Central Minnesota

CITY           SKY/WX    TMP DP  RH WIND       PRES   REMARKS
FERGUS FALLS   CLOUDY    30  30 100 NW9       29.83R WCI  22
WHEATON        CLOUDY    39  39 100 W7        29.83R FOG
MORRIS         CLOUDY    34  30  86 W9        29.79S FOG     WCI  26
ALEXANDRIA     CLOUDY    31  31 100 NW7       29.78S WCI  24
ELBOW LAKE     CLOUDY    31  31 100 NW8       29.80R FOG     WCI  24
WADENA         CLOUDY    30  30 100 W5        29.76S FOG     WCI  25
GLENWOOD       CLOUDY    30  30 100 W8        29.79R FOG     WCI  23
APPLETON       CLOUDY    36  30  80 NW9       29.82R
ORTONVILLE     CLOUDY    34  28  80 CALM      29.81S
MADISON        CLOUDY    36  34  93 W9        29.82S
WILLMAR        CLOUDY    34  34 100 CALM      29.81R FOG
$$
MNZ033>034-036-042>043-049>051-058-059-230300-
   Central Minnesota

CITY           SKY/WX    TMP DP  RH WIND       PRES   REMARKS
ST CLOUD       CLOUDY    33  33 100 W6        29.76S WCI  28
SAUK CENTRE    CLOUDY    32  32 100 W6        29.78R FOG     WCI  26
PAYNESVILLE    CLOUDY    32  32 100 W8        29.78S FOG     WCI  25
AITKIN         CLOUDY    37  34  87 CALM      29.73S
PINE RIVER     CLOUDY    36  36 100 W5        29.78S
BRAINERD       CLOUDY    34  34 100 W7        29.75R FOG     WCI  28
STAPLES        FOG       30  30 100 W7        29.76S VSB 1/2 WCI  23
LONG PRAIRIE   CLOUDY    32  32 100 SW6       29.77S FOG     WCI  26
LITTLE FALLS   CLOUDY    32  32 100 W3        29.77R
LITCHFIELD     CLOUDY    34  34 100 W7        29.79R FOG     WCI  28
BUFFALO        CLOUDY    34  33  95 W3        29.79R FOG
MAPLE LAKE     CLOUDY    34  34  99 W6        29.78S FOG     WCI  29
HUTCHINSON     CLOUDY    33  32  97 W9        29.80R WCI  25
$$
MNZ037-044-045-052-053-230300-
   East Central Minnesota

CITY           SKY/WX    TMP DP  RH WIND       PRES   REMARKS
PRINCETON      CLOUDY    36  36 100 W7        29.76S FOG
MORA           CLOUDY    34  32  93 CALM      29.76S
CAMBRIDGE      CLOUDY    37  37 100 CALM      29.74S
RUSH CITY      CLOUDY    36  34  93 CALM      29.75S
MOOSE LAKE     CLOUDY    36  34  93 CALM      29.72S
HINCKLEY       CLOUDY    36  36 100 W3        29.74S FOG
CLOQUET        CLOUDY    36  34  93 NW3       29.71S FOG
MCGREGOR       CLOUDY    36  34  93 W3        29.74R
$$
MNZ071>073-080-081-089-090-097-098-230300-
   Southwest Minnesota

CITY           SKY/WX    TMP DP  RH WIND       PRES   REMARKS
MONTEVIDEO     CLOUDY    34  34 100 NW7       29.83S WCI  28
GRANITE FALLS  CLOUDY    34  32  91 W10G18    29.83S WCI  26
CANBY          CLOUDY    33  31  89 NW13      29.84S WCI  24
MARSHALL       CLOUDY    31  29  92 NW14      29.83R WCI  21
REDWOOD FALLS  CLOUDY    33  29  85 W12       29.81R FOG     WCI  24
OLIVIA         CLOUDY    32  32 100 W8        29.80R FOG     WCI  25
PIPESTONE      CLOUDY    30  28  93 NW13      29.82R WCI  20
WINDOM         CLOUDY    30  30 100 W13       29.82R FOG     WCI  20
WORTHINGTON    CLOUDY    30  29  96 W15       29.83R WCI  19
JACKSON        CLOUDY    30  30 100 W12       29.83R FOG     WCI  21
TRACY          CLOUDY    32  31  95 NW13      29.82S WCI  22
SLAYTON        CLOUDY    29  28  96 NW13      29.82R FOG     WCI  19
$$
MNZ065>067-074>077-082>085-091>093-230300-
   South Central Minnesota

CITY           SKY/WX    TMP DP  RH WIND       PRES   REMARKS
MANKATO        MIX PCPN  33  32  96 W13       29.81R FOG     WCI  24
NEW ULM        CLOUDY    32  30  93 W9        29.81S FOG     WCI  24
ST JAMES       CLOUDY    30  30 100 W14       29.84R FOG     WCI  20
FAIRMONT       MIX PCPN  33  32  96 NW9       29.82R FOG     WCI  25
GLENCOE        CLOUDY    33  33 100 W10       29.78R FOG     WCI  25
OWATONNA       CLOUDY    34  32  93 W5        29.78R FOG     WCI  30
WASECA         CLOUDY    32  32 100 NW10      29.80R FOG     WCI  24
ALBERT LEA     CLOUDY    34  34 100 NW6       29.78R FOG     WCI  29
$$
MNZ078>079-086>088-094>096-230300-
   Southeast Minnesota

CITY           SKY/WX    TMP DP  RH WIND       PRES   REMARKS
ROCHESTER      CLOUDY    34  34 100 NW8       29.76R FOG     WCI  27
RED WING       CLOUDY    36  34  93 CALM      29.76R FOG
STANTON        CLOUDY    36  34  94 W6        29.76R FOG
DODGE CENTER   FOG       34  34 100 CALM      29.76R VSB 1
WINONA         CLOUDY    36  36 100 CALM      29.77R FOG
AUSTIN         CLOUDY    36  34  93 NW10      29.77R FOG
PRESTON        CLOUDY    33  32  96 NW8       29.76R FOG     WCI  26
$$
ABBREVIATIONS USED IN REMARKS
   TC - TEMPERATURES IN CELSIUS
  WCI - WIND CHILL INDEX
   HX - HEAT INDEX
  VSB - VISIBILITY
$$




USA.gov is the U.S. government's official web portal to all federal, state and local government web resources and services.